[[{"header":{"parameterUnit":"m.s-1","parameterCategory":1,"la1":30.2991,"la2":30.254,"lo1":-89.0895,"lo2":-89.0444,"dy":0.0017,"dx":0.0017,"nx":28,"ny":28,"refTime":"2024-04-26T21:00:00:Z","depth":0,"parameterNumber":2,"parameterNumberName":"U-component_of_WINDS"},"data":[0,0,0,0,0,0,0,0,0,0,0,0,0,0,0,0,0,0,0,0,0,0,0,0,0,0,0,0,0,0,0,0,0,0,0,0,0,0,0,0,0,0,0,0,0,0,0,0,0,0,0,0,0,0,0,0,0,0,-4.9892,-4.9893,0,-5.004,-5.0041,-5.0043,-5.0025,-5.0022,-5.002,-5.0017,-5.0168,-5.0174,-5.0181,0,0,0,0,0,0,0,0,0,0,0,0,0,-4.9592,-4.9598,-4.9891,-4.9893,-4.9895,-5.0039,-5.0041,-5.0044,-5.0025,-5.0022,-5.0019,-5.0016,-5.0166,-5.0174,-5.0181,0,0,0,0,0,0,0,0,0,0,0,0,0,-4.9729,-4.9599,-4.9891,-4.9903,-4.9906,-5.0039,-5.0042,-5.0044,-5.0026,-5.0022,-5.0018,-5.0015,-5.0164,-5.0173,-5.0182,-5.0312,0,0,-5.0211,-5.0215,0,0,0,0,0,0,0,0,-4.9722,-4.974,-4.99,-4.9903,-4.9906,-5.001,-4.9991,-5.0134,-5.0026,-4.998,-5.0017,-5.0013,-5.0119,-5.0131,-5.0167,-5.032,-5.0326,-5.0212,-5.0217,-5.0221,-5.0224,0,0,0,0,0,0,0,-4.9712,-4.9734,-4.995,-4.9902,-4.9906,-4.9901,-4.9917,-5.0018,-5.0068,-4.9984,-4.9983,-5.0001,-5.0119,-5.0158,-5.017,-5.0328,-5.0211,-5.022,-5.0226,-5.0229,-5.0595,-5.0598,0,0,0,0,0,0,-4.9699,-4.9726,-4.9945,-4.9954,-4.9803,-4.991,-4.9927,-4.998,-5.0067,-5.0076,-5.0004,-4.9999,-5.0144,-5.016,-5.0176,-5.0333,-5.0221,-5.023,-5.0236,-5.0591,-5.0596,-5.06,0,0,0,0,0,0,-4.9693,-4.9719,-4.9939,-4.984,-4.9868,-4.9919,-4.9979,-4.9985,-5.0023,-5.0082,-5.009,-5.0034,-5.0142,-5.0163,-5.0279,-5.0338,-5.0234,-5.0243,-5.0586,-5.0592,-5.0598,-5.0649,0,0,0,0,0,0,-4.9685,-4.9717,-4.9767,-4.9841,-4.9873,-5.004,-4.9982,-4.999,-5.004,-5.0036,-5.0112,-5.0121,-5.014,-5.0265,-5.0288,-5.0349,-5.025,-5.0581,-5.0589,-5.0596,-5.0642,-5.0656,-5.0668,0,0,0,0,0,-4.9674,-4.9775,-4.977,-4.9796,-4.9937,-5.0043,-5.0061,-5.0081,-5.0045,-5.0095,-5.0133,-5.0119,-5.0328,-5.0277,-5.0303,-5.0367,-5.0577,-5.0586,-5.0595,-5.0636,-5.0653,-5.0667,0,0,0,0,0,0,-4.9706,-4.9785,-4.978,-4.9908,-4.9969,-5.004,-5.0104,-5.0099,-5.0171,-5.0164,-5.0186,-5.0203,-5.032,-5.0356,-5.0297,-5.0498,-5.0448,-5.0462,-5.047,-5.0486,-5.0499,-5.0487,-5.0258,0,0,0,0,0,-4.9728,-4.9808,-4.9873,-4.998,-5.0011,-5.0053,-5.01,-5.011,-5.0174,-5.0199,-5.0245,-5.0308,-5.0387,-5.0439,-5.0516,-5.0648,-5.0664,-5.0706,-5.0718,-5.0729,-5.074,-5.0812,-5.0831,-5.063,-5.063,-5.063,0,0,-4.9774,-4.9828,-4.9877,-4.9988,-5.0037,-5.0119,-5.0074,-5.0163,-5.0224,-5.0213,-5.0325,-5.0361,-5.0432,-5.0556,-5.0614,-5.059,-5.08,-5.074,-5.0748,-5.0754,-5.0823,-5.0842,-5.0859,-5.0636,-5.0635,-5.0634,0,0,-4.99,-4.9949,-5.0043,-5.0093,-5.0167,-5.0194,-5.0217,-5.0289,-5.0313,-5.0426,-5.0419,-5.0492,-5.0629,-5.068,-5.0723,-5.087,-5.086,-5.0895,-5.0961,-5.1031,-5.1046,-5.1061,-5.1111,-5.1129,-5.0907,-5.0907,-5.0907,0,-4.9948,-5.0071,-5.0092,-5.0182,-5.0231,-5.0226,-5.0321,-5.0368,-5.0464,-5.0497,-5.047,-5.0642,-5.069,-5.0825,-5.0861,-5.0897,-5.0923,-5.0885,-5.1043,-5.1057,-5.107,-5.1119,-5.1138,-5.0911,-5.091,-5.091,-5.0909,0,-5.0126,-5.0212,-5.0279,-5.0371,-5.0428,-5.052,-5.0555,-5.061,-5.0616,-5.0646,-5.0761,-5.0819,-5.0906,-5.094,-5.0947,-5.1077,-5.106,-5.1038,-5.0987,-5.1093,-5.1139,-5.1158,-5.0916,-5.0914,-5.0913,-5.0912,0,0,-5.0273,-5.0377,-5.0401,-5.0443,-5.0525,-5.0591,-5.0684,-5.077,-5.0816,-5.0883,-5.096,-5.1077,-5.1057,-5.1107,-5.112,-5.1181,-5.1292,-5.1151,-5.1153,-5.1174,-5.1438,-5.1452,-5.1473,-5.1287,-5.1291,-5.1294,-5.1431,0,-5.0405,-5.0568,-5.059,-5.0734,-5.0813,-5.081,-5.089,-5.0949,-5.098,-5.1052,-5.1086,-5.1168,-5.1137,-5.1166,-5.1227,-5.1265,-5.1345,-5.1256,-5.1358,-5.1361,-5.1337,-5.1498,-5.1513,-5.164,-5.1449,-5.1453,-5.1455,0,-5.058,-5.0652,-5.0803,-5.0875,-5.0909,-5.098,-5.1061,-5.113,-5.1197,-5.1216,-5.1272,-5.1277,-5.1373,-5.132,-5.1451,-5.1391,-5.1434,-5.1459,-5.1465,-5.1473,-5.1412,-5.1508,-5.1681,-5.1699,-5.1484,-5.1481,-5.1479,0,-5.067,-5.0805,-5.0913,-5.0949,-5.1035,-5.1085,-5.1124,-5.1188,-5.1238,-5.1309,-5.1342,-5.1424,-5.1468,-5.1531,-5.1558,-5.1517,-5.1687,-5.1637,-5.1704,-5.1703,-5.1737,-5.1734,-5.1918,-5.1769,-5.1769,-5.1769,-5.1768,0,-5.0814,-5.0906,-5.0954,-5.102,-5.1124,-5.1149,-5.1251,-5.1287,-5.1344,-5.1417,-5.1421,-5.1489,-5.1522,-5.1596,-5.1618,-5.1723,-5.1743,-5.176,-5.1764,-5.1758,-5.1756,-5.1785,-5.1776,-5.1774,-5.1773,-5.1772,-5.1771,0,-5.0931,-5.0967,-5.1084,-5.1156,-5.1177,-5.125,-5.1312,-5.1376,-5.1407,-5.15,-5.1523,-5.1572,-5.1659,-5.1693,-5.1799,-5.1814,-5.1934,-5.1933,-5.1911,-5.1912,-5.1976,-5.1969,-5.2182,-5.2211,-5.2046,-5.2047,-5.2049,0,-5.1019,-5.109,-5.117,-5.1219,-5.1259,-5.1339,-5.1391,-5.1419,-5.1473,-5.1555,-5.1609,-5.1696,-5.1766,-5.1906,-5.195,-5.2032,-5.2031,-5.2101,-5.2043,-5.2035,-5.203,-5.2024,-5.2031,-5.211,-5.2112,-5.2113,-5.2114,0,-5.1171,-5.1185,-5.126,-5.1341,-5.1402,-5.1468,-5.1531,-5.1571,-5.1609,-5.1669,-5.1758,-5.1813,-5.1922,-5.2008,-5.2092,-5.2131,-5.2129,-5.2132,-5.2152,-5.2145,-5.2129,-5.2137,-5.1937,-5.2127,-5.2125,-5.2124,-5.2124,-5.2123,-5.1275,-5.1337,-5.1404,-5.1487,-5.1537,-5.1597,-5.166,-5.17,-5.1775,-5.1865,-5.1878,-5.1973,-5.2039,-5.2151,-5.2195,-5.2269,-5.2251,-5.228,-5.2286,-5.2293,-5.2296,-5.2119,-5.2285,-5.2285,-5.2285,-5.2284,-5.2284,0,-5.1425,-5.1468,-5.1544,-5.1633,-5.1698,-5.1691,-5.1761,-5.1816,-5.19,-5.1962,-5.2031,-5.2134,-5.2217,-5.2269,-5.2354,-5.2403,-5.2404,-5.2424,-5.242,-5.2429,-5.2308,-5.2282,-5.2422,-5.2422,-5.2422,-5.2422,-5.2422,-5.2422,-5.1511,-5.1616,-5.1639,-5.177,-5.1812,-5.1905,-5.1945,-5.2,-5.205,-5.2163,-5.2233,-5.2267,-5.2325,-5.2413,-5.249,-5.2503,-5.2533,-5.2554,-5.2566,-5.2452,-5.2437,-5.2423,-5.2399,-5.2561,-5.2561,-5.2679,-5.268,-5.2681]},{"header":{"parameterUnit":"m.s-1","parameterCategory":1,"la1":30.2991,"la2":30.254,"lo1":-89.0895,"lo2":-89.0444,"dy":0.0017,"dx":0.0017,"nx":28,"ny":28,"refTime":"2024-04-26T21:00:00:Z","depth":0,"parameterNumber":3,"parameterNumberName":"V-component_of_WINDS"},"data":[0,0,0,0,0,0,0,0,0,0,0,0,0,0,0,0,0,0,0,0,0,0,0,0,0,0,0,0,0,0,0,0,0,0,0,0,0,0,0,0,0,0,0,0,0,0,0,0,0,0,0,0,0,0,0,0,0,0,4.0809,4.081,0,4.0826,4.0826,4.0826,4.0763,4.0761,4.0759,4.0758,4.0772,4.0774,4.0776,0,0,0,0,0,0,0,0,0,0,0,0,0,4.0722,4.0724,4.0809,4.081,4.081,4.0826,4.0826,4.0826,4.0763,4.0761,4.0759,4.0757,4.0771,4.0773,4.0776,0,0,0,0,0,0,0,0,0,0,0,0,0,4.0751,4.0724,4.0809,4.0781,4.0778,4.0826,4.0826,4.0826,4.0764,4.0761,4.0758,4.0756,4.077,4.0773,4.0776,4.0852,0,0,4.0786,4.0787,0,0,0,0,0,0,0,0,4.0749,4.0754,4.0785,4.0783,4.078,4.079,4.08,4.0835,4.0765,4.0769,4.0758,4.0754,4.078,4.0782,4.0791,4.0852,4.0853,4.0786,4.0788,4.0789,4.079,0,0,0,0,0,0,0,4.0748,4.0753,4.0816,4.0785,4.0782,4.0766,4.0767,4.0806,4.079,4.0769,4.0764,4.0767,4.0778,4.0788,4.0791,4.0853,4.0786,4.0789,4.0791,4.0792,4.0977,4.098,0,0,0,0,0,0,4.075,4.0752,4.0815,4.0816,4.0758,4.077,4.0771,4.0789,4.0789,4.0787,4.0769,4.0764,4.0784,4.0787,4.0791,4.0879,4.0789,4.0792,4.0794,4.0974,4.0978,4.0981,0,0,0,0,0,0,4.0748,4.0756,4.0815,4.0783,4.0789,4.0774,4.0795,4.0791,4.0801,4.079,4.0786,4.0783,4.0782,4.0787,4.0837,4.0879,4.0794,4.0797,4.097,4.0975,4.0979,4.1056,0,0,0,0,0,0,4.0746,4.0756,4.0785,4.0784,4.0791,4.0861,4.0798,4.0793,4.0807,4.08,4.0802,4.0799,4.078,4.0833,4.084,4.0881,4.0799,4.0967,4.0973,4.0978,4.105,4.1063,4.1074,0,0,0,0,0,4.0743,4.0805,4.0786,4.0794,4.0827,4.0864,4.0868,4.0845,4.0811,4.0839,4.0832,4.0799,4.0873,4.0839,4.0846,4.0889,4.0964,4.0971,4.0977,4.1044,4.106,4.1073,0,0,0,0,0,0,4.0809,4.0804,4.0784,4.0848,4.0857,4.0853,4.0888,4.0863,4.0881,4.0874,4.0844,4.0845,4.0901,4.09,4.0862,4.0962,4.0912,4.0921,4.0961,4.0975,4.0987,4.0986,4.0802,0,0,0,0,0,4.0832,4.0863,4.0856,4.0913,4.0919,4.0903,4.0918,4.0901,4.0908,4.0912,4.0908,4.0916,4.0941,4.0958,4.0981,4.105,4.1049,4.1083,4.1095,4.1105,4.1112,4.1149,4.1164,4.1003,4.1003,4.1003,0,0,4.0877,4.0879,4.09,4.0927,4.0932,4.0964,4.0907,4.0943,4.0966,4.0917,4.0965,4.0963,4.097,4.103,4.1056,4.1031,4.1157,4.1113,4.1121,4.1124,4.1157,4.1172,4.1186,4.1008,4.1007,4.1006,0,0,4.0977,4.0982,4.103,4.1036,4.1045,4.1035,4.1046,4.1047,4.1044,4.1092,4.1055,4.1082,4.1126,4.1133,4.1142,4.1247,4.1217,4.1255,4.1317,4.1352,4.1365,4.1376,4.1413,4.1426,4.1262,4.1263,4.1263,0,4.1033,4.1081,4.1057,4.1097,4.1109,4.1067,4.1115,4.1123,4.1138,4.1148,4.112,4.1174,4.1176,4.1237,4.1263,4.1272,4.1284,4.1254,4.1365,4.1376,4.1386,4.1421,4.1435,4.1267,4.1267,4.1266,4.1266,0,4.1148,4.1182,4.122,4.1237,4.1254,4.1298,4.128,4.13,4.1282,4.1274,4.1323,4.1324,4.1346,4.1359,4.1341,4.1418,4.1402,4.1371,4.132,4.1406,4.1438,4.1452,4.1274,4.1272,4.1271,4.1269,0,0,4.1289,4.1294,4.1309,4.1316,4.1323,4.1349,4.139,4.1413,4.1431,4.1443,4.1477,4.1515,4.1486,4.1497,4.1479,4.151,4.1592,4.1474,4.1474,4.1496,4.1677,4.1701,4.1717,4.1573,4.1576,4.1578,4.1677,0,4.1387,4.1459,4.144,4.1512,4.1542,4.1504,4.154,4.1548,4.1542,4.1567,4.156,4.1588,4.1547,4.1553,4.1583,4.1576,4.1628,4.1569,4.1603,4.1605,4.1602,4.1734,4.1759,4.1852,4.1689,4.1691,4.1693,0,4.1511,4.1529,4.1605,4.1608,4.162,4.1653,4.1672,4.1697,4.1705,4.1698,4.1711,4.1687,4.1727,4.1677,4.1732,4.1692,4.1705,4.1705,4.1708,4.1709,4.1654,4.1738,4.1881,4.1895,4.1712,4.1711,4.1709,0,4.1606,4.1649,4.17,4.1708,4.1713,4.1737,4.174,4.1745,4.176,4.1777,4.1787,4.1808,4.1819,4.1836,4.1818,4.1784,4.1876,4.1824,4.1871,4.1871,4.1891,4.189,4.2038,4.1901,4.1901,4.1901,4.19,0,4.1717,4.1764,4.1743,4.1774,4.1826,4.1803,4.1855,4.1853,4.1859,4.1888,4.1856,4.1884,4.1859,4.1885,4.1871,4.1919,4.1924,4.192,4.1915,4.1922,4.1923,4.193,4.1923,4.1904,4.1903,4.1903,4.1902,0,4.1831,4.1819,4.1871,4.1872,4.1874,4.1912,4.1912,4.194,4.1933,4.1971,4.1978,4.1966,4.1995,4.1979,4.2008,4.1999,4.2061,4.2047,4.2058,4.2054,4.2102,4.2097,4.2258,4.2278,4.2129,4.2131,4.2132,0,4.1902,4.1938,4.1943,4.1961,4.1967,4.1996,4.2012,4.1991,4.2008,4.2021,4.2048,4.2075,4.2095,4.2143,4.2136,4.2158,4.2145,4.22,4.2148,4.2154,4.2145,4.2143,4.2147,4.221,4.2212,4.2213,4.2214,0,4.203,4.2023,4.2047,4.207,4.209,4.2106,4.212,4.2137,4.2116,4.2137,4.2167,4.2183,4.2214,4.224,4.226,4.2261,4.2235,4.2231,4.2243,4.225,4.2255,4.2253,4.2086,4.2227,4.2226,4.2225,4.2224,4.2224,4.2125,4.2155,4.2164,4.2192,4.22,4.2214,4.2241,4.2238,4.2262,4.2287,4.2273,4.2308,4.2315,4.2339,4.2344,4.2371,4.2349,4.2366,4.237,4.2375,4.2381,4.2251,4.2374,4.2374,4.2374,4.2373,4.2373,0,4.225,4.2255,4.2281,4.2302,4.2324,4.2299,4.2313,4.2333,4.2364,4.2374,4.2395,4.243,4.2455,4.2451,4.2474,4.2497,4.2485,4.2503,4.2501,4.2502,4.24,4.2387,4.2512,4.2512,4.2512,4.2512,4.2512,4.2512,4.2319,4.2368,4.2362,4.2416,4.2419,4.2454,4.2464,4.2477,4.2485,4.2525,4.2547,4.2544,4.2548,4.2572,4.2594,4.2592,4.2602,4.2625,4.2619,4.2523,4.2509,4.2496,4.2484,4.2628,4.2628,4.2719,4.2719,4.272]}]]